Effective Sunday, March 17, 2024, the National Weather Service National Data Buoy Center will discontinue its Dial-A-Buoy Interactive Voice Response system. For more information, see Service Change Notice 24-06 (PDF).

Station 46069 (LLNR 181.6) - SOUTH SANTA ROSA - 14 NM SW of Santa Rosa Island, CA Image indicating link to RSS feed of recent meteorological observations for station 46069


Conditions at 46069 as of
(9:30 am PST)
1730 GMT on 02/29/2024:
     

Click on the graph icon in the table below to see a time series plot of the last five days of that observation.

5-day plot - Wind Direction Wind Direction (WDIR): W ( 280 deg true )
5-day plot - Wind Speed Wind Speed (WSPD): 3.9 kts
5-day plot - Wind Gust Wind Gust (GST): 5.8 kts
5-day plot - Atmospheric Pressure Atmospheric Pressure (PRES):30.16 in
5-day plot - Air Temperature Air Temperature (ATMP): 55.9 °F
5-day plot - Water Temperature Water Temperature (WTMP): 57.7 °F
5-day plot - Dew Point Dew Point (DEWP): 48.2 °F
5-day plot - Wind Speed at 10 Meters Wind Speed at 10 meters (WSPD10M): 3.9 kts
5-day plot - Wind Speed at 20 Meters Wind Speed at 20 meters (WSPD20M): 3.9 kts
5-day plot -  Wind Speed, Wind Gust and Atmospheric Pressure Combined plot of Wind Speed, Gust, and Air Pressure
Supplemental Measurements
Highest 1-minute Wind Speed
Time (PST)5-day plot - 1-Minute Wind Speed WSPD 5-day plot - 1-Minute Wind Direction WDIR
9:25 am 3.9 kts-
Previous observations
TIME
(PST)
5-day plot - Wind Direction
WDIR
 
5-day plot - Wind Speed
WSPD
kts
5-day plot - Wind Gust
GST
kts
5-day plot - Wave Height
WVHT
ft
5-day plot - Dominant Wave Period
DPD
sec
5-day plot - Average Wave Period
APD
sec
5-day plot - Mean Wave Direction
MWD
 
5-day plot - Atmospheric Pressure
PRES
in
5-day plot - Pressure Tendency
PTDY
in
5-day plot - Air Temperature
ATMP
°F
5-day plot - Water Temperature
WTMP
°F
5-day plot - Dew Point
DEWP
°F
5-day plot - Salinity
SAL
psu
5-day plot - Visibility
VIS
nmi
5-day plot - Tide (above MLLW)
TIDE
ft
2024-02-29 09:20 am W 3.9 5.8 4.9 117.5 NW30.16- 55.9 57.7 48.2---
2024-02-29 09:10 amWSW 3.9 5.8----30.16- 55.9 57.7 48.2---
2024-02-29 09:00 am W 3.9 5.8----30.16+0.05 55.9 57.7 48.2---
2024-02-29 08:50 am SW 3.9 5.8 5.2 127.6WNW30.16- 55.9 57.7 47.8---
2024-02-29 08:40 am SW 3.9 5.8 5.2-7.6WNW30.15- 55.8 57.7 47.7---
2024-02-29 08:30 am SW 5.8 9.7----30.15- 55.9 57.7 48.2---
2024-02-29 08:20 amWSW 1.9 5.8 5.2 138.0WNW30.15- 55.8 57.7 47.7---
2024-02-29 08:10 amWSW 3.9 7.8 5.2-8.0WNW30.15- 55.8 57.7 47.8---
2024-02-29 08:00 amWNW 3.9 7.8----30.14+0.06 55.8 57.7 48.0---
2024-02-29 07:50 am W 3.9 7.8 5.2 127.9WNW30.14- 55.6 57.7 47.5---
2024-02-29 07:40 amWNW 5.8 7.8----30.13- 55.8 57.7 48.2---
2024-02-29 07:30 am W 5.8 7.8----30.13- 55.8 57.9 48.0---
2024-02-29 07:20 am W 3.9 7.8 5.6 127.9WNW30.13- 55.8 57.9 48.0---
2024-02-29 07:10 amWSW 3.9 5.8 5.6-7.9WNW30.12- 55.8 57.9 47.7---
2024-02-29 07:00 amWSW 3.9 7.8----30.13+0.06 55.8 57.9 47.5---
2024-02-29 06:50 amWSW 7.8 9.7 5.6 127.8WNW30.12- 55.8 57.9 47.8---
2024-02-29 06:40 amWSW 7.8 11.7 5.6-7.8WNW30.12- 55.8 57.9 48.2---
2024-02-29 06:30 am W 7.8 9.7----30.11- 55.8 57.9 48.9---
2024-02-29 06:20 amWNW 5.8 7.8 5.9 128.0WNW30.11- 55.9 57.9 48.9---
2024-02-29 06:10 amWNW 5.8 11.7 5.9-8.0WNW30.11- 55.9 57.9 48.9---
2024-02-29 06:00 amWNW 7.8 11.7----30.11+0.05 55.9 57.9 48.9---
2024-02-29 05:50 amWNW 7.8 9.7 4.9 117.5WNW30.11- 55.9 57.9 48.9---
2024-02-29 05:40 am NW 5.8 9.7----30.10- 55.9 57.9 48.7---
2024-02-29 05:30 amWNW 7.8 11.7----30.10- 55.9 57.9 48.9---
2024-02-29 05:20 amWNW 7.8 9.7 5.2 127.8WNW30.10- 56.1 57.9 49.1---
2024-02-29 05:10 amWNW 5.8 9.7 5.2-7.8WNW30.09- 55.9 57.9 48.6---
2024-02-29 05:00 amWNW 7.8 11.7----30.09+0.03 56.1 57.9 49.5---
2024-02-29 04:50 amWNW 7.8 11.7 5.2 117.7 NW30.09- 55.9 57.9 48.9---
2024-02-29 04:40 amWNW 7.8 9.7 5.2-7.7 NW30.08- 55.9 57.6 49.1---
2024-02-29 04:30 amWNW 9.7 13.6----30.08- 55.9 57.7 49.3---
2024-02-29 04:20 am W 7.8 11.7 5.2 137.5WNW30.08- 55.9 57.7 49.1---
2024-02-29 04:10 amWNW 9.7 13.6----30.07- 55.9 57.6 49.5---
2024-02-29 04:00 amWNW 9.7 13.6----30.07+0.01 56.1 57.6 50.0---
2024-02-29 03:50 amWNW 9.7 13.6 5.2 137.4WNW30.07- 55.9 57.6 49.8---
2024-02-29 03:40 am W 9.7 13.6----30.07- 55.9 57.6 50.0---
2024-02-29 03:30 am W 9.7 11.7----30.07- 55.9 57.7 50.0---
2024-02-29 03:20 am W 7.8 11.7 4.9 137.2 NW30.06- 55.9 57.7 50.0---
2024-02-29 03:10 amWNW 9.7 13.6 4.9-7.2 NW30.06- 55.9 57.7 50.2---
2024-02-29 03:00 am W 7.8 13.6----30.06+0.00 55.9 57.7 50.4---
2024-02-29 02:50 am W 9.7 13.6 5.6 127.6 NW30.06- 55.9 57.7 50.4---
2024-02-29 02:40 am W 9.7 11.7----30.06- 56.1 57.7 50.7---
2024-02-29 02:30 amWNW 9.7 13.6----30.05- 56.1 57.7 50.7---
2024-02-29 02:20 amWNW 9.7 13.6 5.6 137.4WNW30.06- 56.1 57.7 50.9---
2024-02-29 02:10 am W 9.7 11.7----30.06- 56.1 57.7 50.9---
2024-02-29 02:00 amWNW 9.7 13.6----30.06+0.01 56.1 57.7 51.1---
2024-02-29 01:50 am W 9.7 13.6 5.2 116.8 NW30.06- 56.1 57.7 51.3---
2024-02-29 01:40 amWNW 9.7 11.7----30.06- 56.1 57.7 51.3---
2024-02-29 01:30 amWNW 11.7 13.6----30.05- 56.3 57.7 51.6---
2024-02-29 01:20 amWNW 11.7 13.6 5.2 126.7 NW30.06- 56.3 57.7 51.6---
2024-02-29 01:10 amWNW 11.7 13.6----30.06- 56.1 57.7 51.4---
2024-02-29 01:00 amWNW 11.7 13.6----30.06+0.01 56.3 57.7 52.0---
2024-02-29 12:50 amWNW 11.7 15.5 5.2 136.9WNW30.06- 56.3 57.7 52.0---
2024-02-29 12:40 amWNW 11.7 15.5----30.06- 56.3 57.7 52.2---
2024-02-29 12:30 amWNW 11.7 13.6----30.06- 56.3 57.7 52.3---
2024-02-29 12:20 amWNW 11.7 13.6 5.2 136.8WNW30.06- 56.5 57.7 52.5---
2024-02-29 12:10 amWNW 11.7 13.6 5.2-6.8WNW30.06- 56.5 57.7 52.3---
2024-02-29 12:00 amWNW 11.7 13.6----30.06+0.02 56.5 57.7 52.5---
2024-02-28 11:50 pmWNW 11.7 13.6 5.2 136.7 W30.05- 56.5 57.7 52.5---
2024-02-28 11:40 pmWNW 11.7 13.6----30.05- 56.5 57.7 52.7---
2024-02-28 11:30 pmWNW 11.7 13.6----30.05- 56.7 57.7 53.1---
2024-02-28 11:20 pmWNW 11.7 15.5 5.2 136.7WNW30.05- 56.7 57.7 53.1---
2024-02-28 11:10 pmWNW 11.7 15.5 5.2-6.7WNW30.05- 56.8 57.9 53.4---
2024-02-28 11:00 pmWNW 13.6 15.5----30.05+0.03 56.7 57.9 53.2---
2024-02-28 10:50 pmWNW 11.7 15.5 5.2 136.8WNW30.05- 56.8 57.9 53.6---
2024-02-28 10:40 pmWNW 13.6 15.5 5.2-6.8WNW30.05- 56.8 57.9 53.6---
2024-02-28 10:30 pmWNW 11.7 15.5----30.05- 56.8 57.9 53.6---
2024-02-28 10:20 pmWNW 11.7 15.5 5.6 137.2 NW30.05- 57.0 57.9 53.8---
2024-02-28 10:10 pmWNW 11.7 15.5 5.6-7.2 NW30.05- 57.0 57.9 53.8---
2024-02-28 10:00 pmWNW 11.7 15.5----30.05+0.03 57.0 57.9 53.8---
2024-02-28 09:50 pmWNW 11.7 15.5 6.2 127.4WNW30.04- 57.0 57.9 53.8---
2024-02-28 09:40 pmWNW 11.7 15.5----30.04- 57.0 57.9 54.0---
2024-02-28 09:30 pmWNW 11.7 15.5----30.04- 57.0 58.1 54.1---
2024-02-28 09:20 pmWNW 11.7 15.5 5.6 117.0 NW30.04- 57.2 58.1 54.5---
2024-02-28 09:10 pmWNW 11.7 15.5----30.04- 57.2 58.1 54.7---
2024-02-28 09:00 pmWNW 11.7 15.5----30.04+0.03 57.2 58.1 54.7---
2024-02-28 08:50 pmWNW 11.7 15.5 6.9 137.8 W30.03- 57.2 58.1 54.7---
2024-02-28 08:40 pmWNW 11.7 13.6----30.03- 57.2 58.1 54.9---
2024-02-28 08:30 pmWNW 11.7 13.6----30.03- 57.2 57.9 54.9---
2024-02-28 08:20 pmWNW 9.7 13.6 6.2 137.4 NW30.03- 57.4 58.1 55.0---
2024-02-28 08:10 pmWNW 11.7 13.6----30.03- 57.4 58.1 55.0---
2024-02-28 08:00 pm NW 11.7 13.6----30.02+0.02 57.4 58.1 55.0---
2024-02-28 07:50 pm NW 11.7 13.6 5.9 127.5 NW30.02- 57.4 57.9 55.0---
2024-02-28 07:40 pm NW 9.7 13.6 5.9-7.5 NW30.02- 57.6 57.9 55.2---
2024-02-28 07:30 pm NW 11.7 13.6----30.01- 57.4 57.9 54.7---
2024-02-28 07:20 pm NW 11.7 13.6 6.2 127.7 NW30.01- 57.4 58.1 54.7---
2024-02-28 07:10 pm NW 11.7 13.6 6.2-7.7 NW30.01- 57.6 58.1 54.9---
2024-02-28 07:00 pm NW 11.7 13.6----30.01+0.00 57.6 58.1 54.9---
2024-02-28 06:50 pmWNW 11.7 13.6 6.2 137.6WNW30.01- 57.6 58.1 54.7---
2024-02-28 06:40 pm NW 11.7 15.5----30.01- 57.6 58.3 54.5---
2024-02-28 06:30 pm NW 11.7 15.5----30.01- 57.7 58.5 54.9---
2024-02-28 06:20 pm NW 11.7 15.5 7.2 138.2 NW30.01- 57.9 58.5 55.2---
2024-02-28 06:10 pm NW 11.7 15.5----30.01- 57.9 58.5 55.0---
2024-02-28 06:00 pm NW 13.6 15.5----30.01+0.00 57.9 58.5 54.9---
2024-02-28 05:50 pm NW 11.7 15.5 6.6 138.1WNW30.01- 57.9 58.3 54.9---
2024-02-28 05:40 pmWNW 11.7 15.5----30.01- 57.9 58.3 54.9---
2024-02-28 05:30 pmWNW 11.7 15.5----30.01- 58.1 58.5 54.9---
2024-02-28 05:20 pmWNW 11.7 15.5 6.9 138.3 NW30.01- 58.1 58.5 54.7---
2024-02-28 05:10 pm NW 11.7 15.5 6.9-8.3 NW30.01- 58.3 58.5 54.9---
2024-02-28 05:00 pm NW 11.7 13.6----30.01-0.01 58.3 58.5 54.7---
2024-02-28 04:50 pm NW 11.7 13.6 6.2 138.1 NW30.00- 58.3 58.3 54.7---
2024-02-28 04:40 pm NW 11.7 15.5----30.01- 58.5 58.3 54.5---
2024-02-28 04:30 pmWNW 11.7 15.5----30.01- 58.5 58.5 54.0---
2024-02-28 04:20 pmWNW 11.7 15.5 6.6 139.0WNW30.01- 58.3 58.6 53.6---
2024-02-28 04:10 pmWNW 11.7 13.6 6.6-9.0WNW30.01- 58.5 58.8 54.1---
2024-02-28 04:00 pmWNW 9.7 13.6----30.01-0.01 58.5 58.6 53.8---
2024-02-28 03:50 pmWNW 11.7 13.6 5.9 138.4WNW30.01- 58.1 58.6 52.9---
2024-02-28 03:40 pmWNW 11.7 13.6----30.01- 57.9 58.5 54.1---
2024-02-28 03:30 pmWNW 9.7 13.6----30.01- 57.6 58.6 55.0---
2024-02-28 03:20 pmWNW 9.7 11.7 6.2 148.8WNW30.01- 57.0 58.6 55.8---
2024-02-28 03:10 pmWNW 7.8 9.7----30.01- 56.8 58.6 56.5---
2024-02-28 03:00 pmWNW 3.9 5.8----30.01-0.03 56.8 58.6 56.8---
2024-02-28 02:50 pmWNW 5.8 7.8 5.9 148.4 W30.01- 56.5 58.8 56.5---
2024-02-28 02:40 pmWNW 5.8 5.8 5.9-8.4 W30.01- 56.3 59.0 56.3---
2024-02-28 02:30 pmWNW 5.8 9.7----30.01- 55.9 59.0 55.9---
2024-02-28 02:20 pmWNW 5.8 7.8 6.6 138.4WNW30.01- 55.8 58.8 55.8---
2024-02-28 02:10 pm W 5.8 7.8 6.6-8.4WNW30.01- 55.6 59.0 55.6---
2024-02-28 02:00 pmWNW 5.8 9.7----30.01-0.04 55.4 58.8 55.4---
2024-02-28 01:50 pmWNW 5.8 9.7 6.6 148.2 W30.01- 55.0 58.8 55.0---
2024-02-28 01:40 pmWNW 5.8 7.8 6.6-8.2 W30.01- 54.7 59.4 54.7---
2024-02-28 01:30 pm W 3.9 7.8----30.01- 54.3 58.6 54.3---
2024-02-28 01:20 pm W 3.9 7.8 6.9 138.4WNW30.02- 54.1 59.2 54.1---
2024-02-28 01:10 pm W 1.9 5.8 6.9-8.4WNW30.02- 54.3 58.8 54.3---
2024-02-28 01:00 pm W 1.9 5.8----30.02-0.02 54.0 58.5 54.0---
2024-02-28 12:50 pmWSW 3.9 5.8 7.5 138.5WNW30.03- 53.8 58.5 53.8---
2024-02-28 12:40 pmWSW 1.9 5.8----30.03- 54.0 58.5 53.8---
2024-02-28 12:30 pm W 3.9 5.8----30.03- 54.1 58.5 54.0---
2024-02-28 12:20 pm W 3.9 7.8 6.6 147.7 W30.03- 54.1 58.3 54.0---
2024-02-28 12:10 pm W 1.9 5.8 6.6-7.7 W30.04- 54.3 58.3 54.1---
2024-02-28 12:00 pmWSW 3.9 5.8----30.04+0.00 54.3 58.3 54.0---
2024-02-28 11:50 amWSW 3.9 5.8 7.9 118.3 NW30.05- 54.7 58.5 54.1---
2024-02-28 11:40 am W 3.9 5.8----30.05- 54.7 58.3 54.1---
2024-02-28 11:30 amWSW 3.9 5.8----30.05- 55.0 58.1 54.7---
2024-02-28 11:20 am W 1.9 5.8 6.9 138.0WNW30.05- 55.4 58.1 55.0---
2024-02-28 11:10 amNNW 1.9 3.9 6.9-8.0WNW30.05- 55.0 58.1 54.9---
2024-02-28 11:00 amNNW 1.9 5.8----30.05+0.02 55.0 58.1 54.9---
2024-02-28 10:50 amWNW 1.9 3.9 7.9 148.5 W30.05- 54.9 58.3 54.7---
2024-02-28 10:40 am- 0.0 1.9----30.05- 54.7 58.1 54.7---
2024-02-28 10:30 am- 0.0 3.9----30.04- 54.7 58.1 54.7---
2024-02-28 10:20 am N 1.9 3.9 7.9 118.5WNW30.04- 54.7 58.1 54.7---
2024-02-28 10:10 amENE 1.9 5.8 7.9-8.5WNW30.04- 54.9 58.1 54.9---
2024-02-28 10:00 amENE 1.9 5.8----30.04+0.04 54.9 58.1 54.9---
2024-02-28 09:50 amNNE 1.9 3.9 7.9 148.0WNW30.04- 54.9 58.1 54.9---

Detailed Wave Summary
for 46069 as of (9:10 am PST)
1710 GMT on 02/29/2024:

These wave data are displayed in rounded times.

     

Click on the graph icon in the table below to see a time series plot of the last five days of that observation.

5-day plot - Significant Wave Height Significant Wave Height (WVHT): 4.9 ft
5-day plot - Swell Height Swell Height (SwH): 4.9 ft
5-day plot - Swell Period Swell Period (SwP): 10.8 sec
5-day plot - Swell Direction Swell Direction (SwD): NW
5-day plot - Wind Wave Height Wind Wave Height (WWH): 1.0 ft
5-day plot - Wind Wave Period Wind Wave Period (WWP): 4.0 sec
5-day plot - Wind Wave Direction Wind Wave Direction (WWD):WNW
5-day plot - Wave Steepness Wave Steepness (STEEPNESS): SWELL
5-day plot - Average Wave Period Average Wave Period (APD): 7.5 sec
Previous observations
TIME
(PST)
5-day plot - Wave Height
WVHT
ft
5-day plot - Swell Height
SwH
ft
5-day plot - Swell Period
SwP
sec
5-day plot - Swell Direction
SwD
 
5-day plot - Wind Wave Height
WWH
ft
5-day plot - Wind Wave Period
WWP
sec
5-day plot - Wind Wave Direction
WWD
 
5-day plot - Wave Steepness
STEEPNESS
 
5-day plot - Average Wave Period
APD
sec
2024-02-29 08:40 am 5.2 4.9 12.1WNW 1.0 3.8 WNW SWELL 7.6
2024-02-29 08:10 am 5.2 5.2 12.9WNW 1.0 3.8 WNW SWELL 8.0
2024-02-29 07:40 am 5.2 5.2 12.1WNW 1.0 3.7 WNW SWELL 7.9
2024-02-29 07:10 am 5.6 5.2 12.1WNW 1.0 3.4 W SWELL 7.9
2024-02-29 06:40 am 5.6 5.2 12.1WNW 1.0 3.8 WNW SWELL 7.8
2024-02-29 06:10 am 5.9 5.9 12.1WNW 1.0 3.4 W SWELL 8.0
2024-02-29 05:40 am 4.9 4.9 10.8WNW 1.3 3.7 WNW SWELL 7.5
2024-02-29 05:10 am 5.2 5.2 12.1WNW 1.3 3.4 W SWELL 7.8
2024-02-29 04:40 am 5.2 5.2 11.4 NW 1.0 4.0 WNW SWELL 7.7
2024-02-29 04:10 am 5.2 4.9 12.9WNW 1.6 5.0 WNW SWELL 7.5
2024-02-29 03:40 am 5.2 4.9 12.9WNW 1.6 4.0 WNW SWELL 7.4
2024-02-29 03:10 am 4.9 4.6 12.9 NW 1.6 4.0 W SWELL 7.2
2024-02-29 02:40 am 5.6 5.2 12.1 NW 1.6 4.0 W SWELL 7.6
2024-02-29 02:10 am 5.6 5.2 12.9WNW 1.6 4.2 W SWELL 7.4
2024-02-29 01:40 am 5.2 4.9 10.8 NW 1.6 3.3 WNW SWELL 6.8
2024-02-29 01:10 am 5.2 4.9 12.1 NW 2.3 3.3 WNW SWELL 6.7
2024-02-29 12:40 am 5.2 4.9 12.9WNW 2.0 5.3 WNW SWELL 6.9
2024-02-29 12:10 am 5.2 4.9 12.9WNW 2.0 5.3 NW SWELL 6.8
2024-02-28 11:40 pm 5.2 4.9 12.9 W 2.3 4.8 WNW SWELL 6.7
2024-02-28 11:10 pm 5.2 4.9 12.9WNW 2.3 5.3 WNW SWELL 6.7
2024-02-28 10:40 pm 5.2 4.6 12.9WNW 2.3 5.0 WNW SWELL 6.8
2024-02-28 10:10 pm 5.6 5.2 12.9 NW 2.0 5.3 WNW SWELL 7.2
2024-02-28 09:40 pm 6.2 5.9 12.1WNW 2.0 5.3 WNW SWELL 7.4
2024-02-28 09:10 pm 5.6 4.9 11.4 NW 2.3 4.8 WNW SWELL 7.0
2024-02-28 08:40 pm 6.9 6.6 12.9 W 2.0 4.8 WNW SWELL 7.8
2024-02-28 08:10 pm 6.2 5.9 12.9 NW 2.0 4.2 W SWELL 7.4
2024-02-28 07:40 pm 5.9 5.6 12.1 NW 1.6 4.8 W SWELL 7.5
2024-02-28 07:10 pm 6.2 5.9 12.1 NW 2.0 4.8 WNW SWELL 7.7
2024-02-28 06:40 pm 6.2 5.9 12.9WNW 2.3 5.9 WNW SWELL 7.6
2024-02-28 06:10 pm 7.2 6.9 12.9 NW 2.3 5.9 NW SWELL 8.2
2024-02-28 05:40 pm 6.6 6.2 12.9WNW 2.0 4.5 WNW SWELL 8.1
2024-02-28 05:10 pm 6.9 6.6 12.9 NW 2.0 5.6 WNW SWELL 8.3
2024-02-28 04:40 pm 6.2 5.9 12.9 NW 2.0 4.3 WNW SWELL 8.1
2024-02-28 04:10 pm 6.6 6.6 12.9WNW 1.6 5.3 WNW SWELL 9.0
2024-02-28 03:40 pm 5.9 5.6 12.9WNW 1.6 5.3 WNW SWELL 8.4
2024-02-28 03:10 pm 6.2 6.2 13.8WNW 1.0 4.0 WNW SWELL 8.8
2024-02-28 02:40 pm 5.9 5.9 13.8 W 1.0 3.8 WNW SWELL 8.4
2024-02-28 02:10 pm 6.6 6.2 12.9WNW 1.0 3.7 WNW SWELL 8.4
2024-02-28 01:40 pm 6.6 6.2 13.8 W 1.0 2.9 W SWELL 8.2
2024-02-28 01:10 pm 6.9 6.9 12.9WNW 1.3 4.0 WNW SWELL 8.4
2024-02-28 12:40 pm 7.5 7.5 12.9WNW 1.0 4.0 WNW SWELL 8.5
2024-02-28 12:10 pm 6.6 6.6 13.8 W 1.3 3.7 WNW SWELL 7.7
2024-02-28 11:40 am 7.9 7.9 10.8 NW 1.3 3.7 WNW SWELL 8.3
2024-02-28 11:10 am 6.9 6.9 12.9WNW 1.3 3.4 WNW SWELL 8.0
2024-02-28 10:40 am 7.9 7.9 13.8 W 1.3 3.8 WNW SWELL 8.5
2024-02-28 10:10 am 7.9 7.9 11.4WNW 1.3 4.0 WNW SWELL 8.5

Plot of wave energy versus frequency (and period)